Location: Unspecified
(0.0000°N, 0.0000°E)
Time: 00:38:49

Cosmos 1072 Rocket - Visible Passes

Search period start: 26 October 2016 00:00
Search period end: 04 November 2016 23:00
Orbit: 949 x 1008 km, 82.9° (Epoch: 24 October)

Date Brightness Start Highest point End Pass type
(mag) Time Alt. Az. Time Alt. Az. Time Alt. Az.
26 Oct 6.3 05:50:01 16° SSW 05:50:01 16° SSW 05:51:24 10° SSW visible
27 Oct 7.1 04:32:08 12° SSE 04:32:08 12° SSE 04:32:33 10° SSE visible
28 Oct 6.9 04:58:56 12° S 04:58:56 12° S 04:59:23 10° S visible
